Meteo18 Weather Cam more information Meteo18 Weather Cam


Thunder radar more information blitzortung!


Rain radar more information rain snow radar



Select another period ( hide this area )

Units Period Custom range Directly to
Metric English Both
Daily Weekly Monthly Yearly
use both date-selectors for a custom range
previous Day
With this date

WeatherUnderground graphs for this period ( click here )


Daily Summary for Saturday 22 September 2018
Time Temp. ( °C ) Dew pt. ( °C ) Wind ( km/h ) from Gust ( km/h ) Pressure ( hPa ) Humid.( % ) Rainrate ( cm )
High20,8 10,2 22,7 SW ( 362/840 ) 25,7 1025,6 95 -
Average12,6 7,1 3,7 Calm #128/229 6,4 1024,0 73 -
Low6,3 5,3 -   0,0 1020,2 37 -
Daily Tabular details for Saturday 22 September 2018
Time Temp. ( °C ) Dew pt. ( °C ) Wind ( km/h ) from Gust ( km/h ) Pressure ( hPa ) Humid.( % ) Rainrate ( cm )
00:03 9,6 7,0   Calm   1024,3 84 -
00:09 9,5 7,1   Calm   1024,6 85 -
00:13 9,4 7,0   Calm   1024,6 85 -
00:19 9,4 7,0   Calm   1024,6 85 -
00:23 9,4 7,2   Calm 1,6 1024,6 86 -
00:29 9,5 7,3   Calm   1024,6 86 -
00:33 9,5 7,1   Calm   1024,6 85 -
00:39 9,3 6,9   Calm 1,6 1024,6 85 -
00:43 9,2 6,8   Calm   1024,6 85 -
00:49 9,1 6,9   Calm   1024,6 86 -
00:53 8,9 6,7   Calm   1024,6 86 -
00:59 8,9 6,9   Calm   1024,6 87 -
01:03 8,8 6,8   Calm   1024,6 87 -
01:08 8,7 6,7   Calm   1024,6 87 -
01:14 8,5 6,5   Calm   1024,9 87 -
01:18 8,4 6,4   Calm   1024,9 87 -
01:24 8,3 6,4   Calm   1024,9 88 -
01:28 8,4 6,5   Calm   1024,9 88 -
01:34 8,4 6,7   Calm   1024,9 89 -
01:38 8,4 6,7   Calm   1024,9 89 -
01:44 8,5 6,8   Calm   1024,9 89 -
01:48 8,6 6,9   Calm 1,6 1024,9 89 -
01:54 8,7 6,8   Calm   1024,9 88 -
01:58 8,7 6,8   Calm   1024,9 88 -
02:04 8,6 6,7   Calm   1024,9 88 -
02:08 8,6 6,7   Calm   1024,9 88 -
02:14 8,6 6,7   Calm   1024,9 88 -
02:18 8,6 6,7   Calm   1024,9 88 -
02:24 8,7 6,8   Calm 1,6 1024,9 88 -
02:28 8,8 6,9   Calm   1024,9 88 -
02:34 8,8 6,8   Calm   1024,9 87 -
02:38 8,7 6,7   Calm   1025,3 87 -
02:44 8,7 6,8   Calm   1024,9 88 -
02:48 8,7 6,8   Calm   1024,9 88 -
02:54 8,7 6,7   Calm   1024,9 87 -
02:58 8,7 6,7   Calm   1024,9 87 -
03:02 8,6 6,6   Calm   1024,9 87 -
03:09 8,5 6,6   Calm   1024,9 88 -
03:13 8,4 6,5   Calm 1,6 1024,9 88 -
03:19 8,4 6,5   Calm   1024,9 88 -
03:23 8,3 6,4   Calm   1024,9 88 -
03:29 8,3 6,6 1,4 SSW 1,6 1024,6 89 -
03:33 8,4 6,7 1,4 SW 1,6 1024,9 89 -
03:39 8,6 6,7   Calm   1024,9 88 -
03:43 8,6 6,7   Calm   1024,9 88 -
03:49 8,5 6,6   Calm   1024,9 88 -
03:53 8,3 6,4   Calm   1024,9 88 -
03:59 8,1 6,2   Calm   1024,9 88 -
04:03 8,1 6,4   Calm   1024,9 89 -
04:09 8,1 6,4   Calm   1024,9 89 -
04:13 8,1 6,4   Calm   1024,9 89 -
04:19 8,1 6,4   Calm   1024,9 89 -
04:23 8,0 6,5   Calm   1024,9 90 -
04:29 7,9 6,4   Calm   1024,9 90 -
04:33 7,8 6,3   Calm   1024,9 90 -
04:37 7,7 6,2   Calm   1024,9 90 -
04:44 7,6 6,1   Calm   1024,9 90 -
04:48 7,4 6,0   Calm   1024,9 91 -
04:54 7,3 5,9   Calm   1024,6 91 -
04:58 7,3 6,1   Calm   1024,9 92 -
05:04 7,3 6,1   Calm   1024,9 92 -
05:08 7,3 6,1   Calm   1024,9 92 -
05:14 7,3 6,1   Calm   1024,9 92 -
05:18 7,3 6,1   Calm   1025,3 92 -
05:24 7,2 6,0   Calm   1025,3 92 -
05:28 7,1 5,9   Calm   1024,9 92 -
05:34 6,9 5,7   Calm   1024,9 92 -
05:38 6,9 5,7   Calm   1024,9 92 -
05:44 6,7 5,5   Calm   1024,9 92 -
05:48 6,7 5,6   Calm   1024,9 93 -
05:54 6,8 5,7   Calm   1024,9 93 -
05:58 6,9 5,8   Calm   1024,9 93 -
06:04 6,9 5,8   Calm   1024,9 93 -
06:08 6,9 5,8   Calm   1024,9 93 -
06:14 6,9 5,8   Calm   1024,9 93 -
06:18 6,8 5,7   Calm   1024,9 93 -
06:24 6,7 5,6   Calm   1024,9 93 -
06:28 6,7 5,6   Calm   1024,9 93 -
06:34 6,7 5,6   Calm   1024,9 93 -
06:38 6,6 5,5   Calm   1024,6 93 -
06:44 6,5 5,4   Calm   1024,6 93 -
06:48 6,4 5,4   Calm   1024,9 93 -
06:54 6,3 5,3   Calm   1024,9 93 -
06:58 6,3 5,4   Calm   1024,9 94 -
07:04 6,4 5,5   Calm   1024,9 94 -
07:08 6,4 5,5   Calm   1024,9 94 -
07:14 6,6 5,7   Calm   1025,3 94 -
07:18 6,5 5,6   Calm   1025,6 94 -
07:24 6,4 5,5   Calm   1025,3 94 -
07:28 6,4 5,5   Calm   1025,3 94 -
07:34 6,5 5,6   Calm   1025,3 94 -
07:38 6,4 5,5   Calm   1025,6 94 -
07:44 6,4 5,5   Calm   1025,3 94 -
07:48 6,4 5,5   Calm   1025,3 94 -
07:54 6,4 5,5   Calm   1025,6 94 -
07:58 6,5 5,6   Calm   1025,6 94 -
08:04 6,9 6,2   Calm   1025,6 95 -
08:08 7,3 6,6   Calm   1025,3 95 -
08:14 7,4 6,5   Calm   1025,3 94 -
08:18 7,4 6,5   Calm   1025,6 94 -
08:24 7,3 6,4   Calm   1025,3 94 -
08:28 7,4 6,5   Calm   1025,6 94 -
08:34 7,4 6,5   Calm   1025,6 94 -
08:38 7,5 6,6   Calm   1025,6 94 -
08:43 7,6 6,7   Calm   1025,6 94 -
08:49 7,6 6,7   Calm   1025,3 94 -
08:53 7,8 6,9   Calm   1025,3 94 -
08:59 8,2 7,4   Calm   1024,9 95 -
09:03 8,2 7,3   Calm   1025,3 94 -
09:09 8,3 7,4   Calm   1025,3 94 -
09:13 8,4 7,5   Calm   1025,3 94 -
09:19 8,5 7,4   Calm   1025,3 93 -
09:23 8,7 7,8   Calm   1025,3 94 -
09:29 8,9 7,8   Calm   1025,3 93 -
09:33 9,1 8,0   Calm   1025,3 93 -
09:39 9,4 8,3   Calm   1025,3 93 -
09:43 9,6 8,4   Calm   1025,3 92 -
09:49 9,8 8,4   Calm   1025,3 91 -
09:53 10,2 8,8   Calm   1025,3 91 -
09:59 11,2 9,6   Calm   1025,3 90 -
10:03 12,0 10,2   Calm   1025,3 89 -
10:09 12,1 9,1   Calm   1025,3 82 -
10:13 12,2 9,4   Calm   1025,3 83 -
10:19 12,3 8,9   Calm   1024,9 80 -
10:23 12,4 8,9   Calm   1025,3 79 -
10:29 12,6 9,2   Calm   1025,3 80 -
10:33 12,9 9,5   Calm   1024,9 80 -
10:39 13,4 9,4   Calm 3,2 1025,3 77 -
10:43 13,6 9,6 1,4 SW 4,8 1025,3 77 -
10:49 13,6 9,6 1,4 SSW 4,8 1025,3 77 -
10:54 13,7 9,3   Calm 6,4 1025,3 75 -
10:58 13,9 9,5 3,2 SW 4,8 1024,9 75 -
11:04 14,2 9,8 1,4 SSE 4,8 1024,9 75 -
11:08 14,4 9,6 9,7 SW 9,7 1024,9 73 -
11:14 14,6 9,8 6,4 SSW 6,4 1024,9 73 -
11:18 14,7 9,3 4,7 SSW 6,4 1024,9 70 -
11:24 14,7 9,3 9,7 SW 9,7 1024,6 70 -
11:28 14,8 9,2 3,2 SW 9,7 1024,6 69 -
11:34 15,2 9,8 4,7 SW 9,7 1024,6 70 -
11:38 15,3 9,9 1,4 SSE 11,3 1024,6 70 -
11:44 15,8 9,9 7,9 SW 8,0 1024,9 68 -
11:48 15,9 9,6 4,7 SSW 8,0 1024,9 66 -
11:54 15,7 9,1 4,7 SSW 14,5 1024,6 65 -
11:58 15,9 9,6 3,2 South 8,0 1024,6 66 -
12:04 16,4 9,6 3,2 SE 12,9 1024,3 64 -
12:08 16,4 9,6 9,7 South 16,1 1024,3 64 -
12:14 16,2 8,7 13,0 SW 20,9 1024,3 61 -
12:18 16,2 8,9 4,7 SSW 12,9 1024,3 62 -
12:24 16,4 9,3 6,4 WSW 9,7 1024,3 63 -
12:28 16,4 9,1 3,2 ESE 9,7 1024,3 62 -
12:34 16,4 8,6 14,3 SSW 14,5 1024,3 60 -
12:38 16,4 8,6 13,0 SSW 12,9 1023,9 60 -
12:44 16,7 8,6 4,7 SW 14,5 1023,9 59 -
12:48 17,0 8,9 1,4 East 6,4 1023,9 59 -
12:54 17,5 9,1 6,4 SW 14,5 1023,9 58 -
12:58 17,4 8,5 7,9 SW 14,5 1023,9 56 -
13:04 17,3 8,7 7,9 South 12,9 1023,9 57 -
13:08 17,2 8,9 9,7 SSE 11,3 1023,9 58 -
13:14 17,0 7,9 9,7 SSW 14,5 1023,6 55 -
13:18 17,1 8,0 9,7 SW 22,5 1023,9 55 -
13:24 17,2 8,1 9,7 SW 14,5 1023,9 55 -
13:28 17,6 8,7 1,4 SW 6,4 1023,6 56 -
13:34 17,6 7,6 9,7 SSE 19,3 1023,6 52 -
13:38 17,8 8,4 7,9 SW 11,3 1023,6 54 -
13:44 17,9 8,2 6,4 SSE 12,9 1023,2 53 -
13:48 18,1 8,4 4,7 SSW 8,0 1023,2 53 -
13:54 17,9 7,3 11,1 South 17,7 1023,2 50 -
13:58 17,7 6,8 7,9 SSW 20,9 1023,2 49 -
14:04 17,6 6,8 4,7 South 14,5 1023,2 49 -
14:08 17,7 7,7 6,4 SSW 11,3 1023,2 52 -
14:14 17,7 6,8 11,1 SW 19,3 1022,9 49 -
14:18 17,8 8,1 11,1 SW 14,5 1022,9 53 -
14:24 18,3 8,0 11,1 South 16,1 1022,9 51 -
14:28 18,6 8,0 7,9 SW 17,7 1022,9 50 -
14:34 18,4 7,2 14,3 SW 22,5 1022,9 48 -
14:38 18,2 6,7 7,9 SSW 16,1 1022,9 47 -
14:44 18,4 7,2 11,1 SW 14,5 1022,6 48 -
14:48 18,3 7,4 6,4 SSW 17,7 1022,6 49 -
14:54 18,2 6,7 14,3 SSW 19,3 1022,6 47 -
14:58 18,2 7,0 3,2 SW 14,5 1022,6 48 -
15:04 18,1 7,2 7,9 SW 14,5 1022,9 49 -
15:08 18,2 7,3 7,9 West 11,3 1022,9 49 -
15:14 18,2 7,0 14,3 WSW 19,3 1022,6 48 -
15:18 18,3 6,8 14,3 SW 14,5 1022,6 47 -
15:24 18,3 7,1 14,3 SW 14,5 1022,6 48 -
15:28 18,4 6,6 6,4 SSW 14,5 1022,6 46 -
15:34 18,3 6,8 4,7 SW 12,9 1022,6 47 -
15:38 18,4 7,2 4,7 SSW 6,4 1022,6 48 -
15:44 18,6 7,4 9,7 South 11,3 1022,6 48 -
15:48 18,7 7,2 9,7 WSW 17,7 1022,6 47 -
15:54 18,8 7,2 6,4 SW 12,9 1022,2 47 -
15:58 18,8 7,6   Calm 11,3 1022,2 48 -
16:04 18,9 7,3 9,7 SSW 16,1 1022,2 47 -
16:08 18,9 6,7 6,4 WSW 19,3 1022,2 45 -
16:14 19,1 6,6 6,4 SSW 17,7 1021,9 44 -
16:18 19,1 6,9 3,2 WSW 11,3 1021,9 45 -
16:24 19,1 6,2 11,1 SSW 11,3 1021,6 43 -
16:28 19,3 6,4 13,0 SSW 19,3 1021,6 43 -
16:34 19,4 6,2 11,1 SW 19,3 1021,6 42 -
16:38 19,3 6,4 4,7 SW 14,5 1021,6 43 -
16:44 19,7 6,8 7,9 SW 19,3 1021,6 43 -
16:48 19,8 6,9 14,3 SSW 22,5 1021,6 43 -
16:54 19,9 6,9 9,7 SW 19,3 1021,2 43 -
16:58 19,9 7,3 4,7 SE 12,9 1021,2 44 -
17:02 20,0 7,4 11,1 SSW 17,7 1021,2 44 -
17:08 19,9 7,3 14,3 SW 17,7 1021,6 44 -
17:13 19,8 7,5 7,9 South 12,9 1021,2 45 -
17:19 19,8 6,9 7,9 SSW 19,3 1021,2 43 -
17:23 19,9 7,3 11,1 SW 16,1 1021,2 44 -
17:29 20,1 7,5 13,0 SW 20,9 1021,2 44 -
17:33 20,1 7,5 7,9 SW 16,1 1020,9 44 -
17:39 20,1 7,1 13,0 SSW 16,1 1020,9 43 -
17:43 20,0 7,4 7,9 SW 16,1 1020,9 44 -
17:49 19,9 7,3 4,7 West 12,9 1020,9 44 -
17:53 20,0 7,4 6,4 WSW 11,3 1020,5 44 -
17:59 20,2 7,6 4,7 West 14,5 1020,5 44 -
18:03 20,3 6,6 6,4 WSW 16,1 1020,5 41 -
18:09 20,3 6,3 9,7 SSW 11,3 1020,5 40 -
18:13 20,4 6,0 16,3 West 17,7 1020,5 39 -
18:19 20,7 5,9 7,9 SW 20,9 1020,2 38 -
18:23 20,8 5,6 14,3 SW 14,5 1020,2 37 -
18:29 20,8 5,6 14,3 SW 19,3 1020,5 37 -
18:33 20,8 5,6 14,3 WSW 19,3 1020,5 37 -
18:39 20,6 5,4 22,7 WSW 24,1 1020,2 37 -
18:43 20,5 5,7 11,1 WSW 25,7 1020,2 38 -
18:49 20,4 5,6 16,3 SW 16,1 1020,5 38 -
18:53 20,4 5,6 9,7 SSW 20,9 1020,5 38 -
18:59 20,3 6,3 13,0 SW 19,3 1020,2 40 -
19:03 20,3 6,3 7,9 SSW 17,7 1020,2 40 -
Daily Summary for Saturday 22 September 2018
Time Temp. ( °C ) Dew pt. ( °C ) Wind ( km/h ) from Gust ( km/h ) Pressure ( hPa ) Humid.( % ) Rainrate ( cm )
High20,8 10,2 22,7 SW ( 362/840 ) 25,7 1025,6 95 -
Average12,6 7,1 3,7 Calm #128/229 6,4 1024,0 73 -
Low6,3 5,3 -   0,0 1020,2 37 -
Daily Tabular details for Saturday 22 September 2018
Time Temp. ( °C ) Dew pt. ( °C ) Wind ( km/h ) from Gust ( km/h ) Pressure ( hPa ) Humid.( % ) Rainrate ( cm )
00:03 9,6 7,0   Calm   1024,3 84 -
00:09 9,5 7,1   Calm   1024,6 85 -
00:13 9,4 7,0   Calm   1024,6 85 -
00:19 9,4 7,0   Calm   1024,6 85 -
00:23 9,4 7,2   Calm 1,6 1024,6 86 -
00:29 9,5 7,3   Calm   1024,6 86 -
00:33 9,5 7,1   Calm   1024,6 85 -
00:39 9,3 6,9   Calm 1,6 1024,6 85 -
00:43 9,2 6,8   Calm   1024,6 85 -
00:49 9,1 6,9   Calm   1024,6 86 -
00:53 8,9 6,7   Calm   1024,6 86 -
00:59 8,9 6,9   Calm   1024,6 87 -
01:03 8,8 6,8   Calm   1024,6 87 -
01:08 8,7 6,7   Calm   1024,6 87 -
01:14 8,5 6,5   Calm   1024,9 87 -
01:18 8,4 6,4   Calm   1024,9 87 -
01:24 8,3 6,4   Calm   1024,9 88 -
01:28 8,4 6,5   Calm   1024,9 88 -
01:34 8,4 6,7   Calm   1024,9 89 -
01:38 8,4 6,7   Calm   1024,9 89 -
01:44 8,5 6,8   Calm   1024,9 89 -
01:48 8,6 6,9   Calm 1,6 1024,9 89 -
01:54 8,7 6,8   Calm   1024,9 88 -
01:58 8,7 6,8   Calm   1024,9 88 -
02:04 8,6 6,7   Calm   1024,9 88 -
02:08 8,6 6,7   Calm   1024,9 88 -
02:14 8,6 6,7   Calm   1024,9 88 -
02:18 8,6 6,7   Calm   1024,9 88 -
02:24 8,7 6,8   Calm 1,6 1024,9 88 -
02:28 8,8 6,9   Calm   1024,9 88 -
02:34 8,8 6,8   Calm   1024,9 87 -
02:38 8,7 6,7   Calm   1025,3 87 -
02:44 8,7 6,8   Calm   1024,9 88 -
02:48 8,7 6,8   Calm   1024,9 88 -
02:54 8,7 6,7   Calm   1024,9 87 -
02:58 8,7 6,7   Calm   1024,9 87 -
03:02 8,6 6,6   Calm   1024,9 87 -
03:09 8,5 6,6   Calm   1024,9 88 -
03:13 8,4 6,5   Calm 1,6 1024,9 88 -
03:19 8,4 6,5   Calm   1024,9 88 -
03:23 8,3 6,4   Calm   1024,9 88 -
03:29 8,3 6,6 1,4 SSW 1,6 1024,6 89 -
03:33 8,4 6,7 1,4 SW 1,6 1024,9 89 -
03:39 8,6 6,7   Calm   1024,9 88 -
03:43 8,6 6,7   Calm   1024,9 88 -
03:49 8,5 6,6   Calm   1024,9 88 -
03:53 8,3 6,4   Calm   1024,9 88 -
03:59 8,1 6,2   Calm   1024,9 88 -
04:03 8,1 6,4   Calm   1024,9 89 -
04:09 8,1 6,4   Calm   1024,9 89 -
04:13 8,1 6,4   Calm   1024,9 89 -
04:19 8,1 6,4   Calm   1024,9 89 -
04:23 8,0 6,5   Calm   1024,9 90 -
04:29 7,9 6,4   Calm   1024,9 90 -
04:33 7,8 6,3   Calm   1024,9 90 -
04:37 7,7 6,2   Calm   1024,9 90 -
04:44 7,6 6,1   Calm   1024,9 90 -
04:48 7,4 6,0   Calm   1024,9 91 -
04:54 7,3 5,9   Calm   1024,6 91 -
04:58 7,3 6,1   Calm   1024,9 92 -
05:04 7,3 6,1   Calm   1024,9 92 -
05:08 7,3 6,1   Calm   1024,9 92 -
05:14 7,3 6,1   Calm   1024,9 92 -
05:18 7,3 6,1   Calm   1025,3 92 -
05:24 7,2 6,0   Calm   1025,3 92 -
05:28 7,1 5,9   Calm   1024,9 92 -
05:34 6,9 5,7   Calm   1024,9 92 -
05:38 6,9 5,7   Calm   1024,9 92 -
05:44 6,7 5,5   Calm   1024,9 92 -
05:48 6,7 5,6   Calm   1024,9 93 -
05:54 6,8 5,7   Calm   1024,9 93 -
05:58 6,9 5,8   Calm   1024,9 93 -
06:04 6,9 5,8   Calm   1024,9 93 -
06:08 6,9 5,8   Calm   1024,9 93 -
06:14 6,9 5,8   Calm   1024,9 93 -
06:18 6,8 5,7   Calm   1024,9 93 -
06:24 6,7 5,6   Calm   1024,9 93 -
06:28 6,7 5,6   Calm   1024,9 93 -
06:34 6,7 5,6   Calm   1024,9 93 -
06:38 6,6 5,5   Calm   1024,6 93 -
06:44 6,5 5,4   Calm   1024,6 93 -
06:48 6,4 5,4   Calm   1024,9 93 -
06:54 6,3 5,3   Calm   1024,9 93 -
06:58 6,3 5,4   Calm   1024,9 94 -
07:04 6,4 5,5   Calm   1024,9 94 -
07:08 6,4 5,5   Calm   1024,9 94 -
07:14 6,6 5,7   Calm   1025,3 94 -
07:18 6,5 5,6   Calm   1025,6 94 -
07:24 6,4 5,5   Calm   1025,3 94 -
07:28 6,4 5,5   Calm   1025,3 94 -
07:34 6,5 5,6   Calm   1025,3 94 -
07:38 6,4 5,5   Calm   1025,6 94 -
07:44 6,4 5,5   Calm   1025,3 94 -
07:48 6,4 5,5   Calm   1025,3 94 -
07:54 6,4 5,5   Calm   1025,6 94 -
07:58 6,5 5,6   Calm   1025,6 94 -
08:04 6,9 6,2   Calm   1025,6 95 -
08:08 7,3 6,6   Calm   1025,3 95 -
08:14 7,4 6,5   Calm   1025,3 94 -
08:18 7,4 6,5   Calm   1025,6 94 -
08:24 7,3 6,4   Calm   1025,3 94 -
08:28 7,4 6,5   Calm   1025,6 94 -
08:34 7,4 6,5   Calm   1025,6 94 -
08:38 7,5 6,6   Calm   1025,6 94 -
08:43 7,6 6,7   Calm   1025,6 94 -
08:49 7,6 6,7   Calm   1025,3 94 -
08:53 7,8 6,9   Calm   1025,3 94 -
08:59 8,2 7,4   Calm   1024,9 95 -
09:03 8,2 7,3   Calm   1025,3 94 -
09:09 8,3 7,4   Calm   1025,3 94 -
09:13 8,4 7,5   Calm   1025,3 94 -
09:19 8,5 7,4   Calm   1025,3 93 -
09:23 8,7 7,8   Calm   1025,3 94 -
09:29 8,9 7,8   Calm   1025,3 93 -
09:33 9,1 8,0   Calm   1025,3 93 -
09:39 9,4 8,3   Calm   1025,3 93 -
09:43 9,6 8,4   Calm   1025,3 92 -
09:49 9,8 8,4   Calm   1025,3 91 -
09:53 10,2 8,8   Calm   1025,3 91 -
09:59 11,2 9,6   Calm   1025,3 90 -
10:03 12,0 10,2   Calm   1025,3 89 -
10:09 12,1 9,1   Calm   1025,3 82 -
10:13 12,2 9,4   Calm   1025,3 83 -
10:19 12,3 8,9   Calm   1024,9 80 -
10:23 12,4 8,9   Calm   1025,3 79 -
10:29 12,6 9,2   Calm   1025,3 80 -
10:33 12,9 9,5   Calm   1024,9 80 -
10:39 13,4 9,4   Calm 3,2 1025,3 77 -
10:43 13,6 9,6 1,4 SW 4,8 1025,3 77 -
10:49 13,6 9,6 1,4 SSW 4,8 1025,3 77 -
10:54 13,7 9,3   Calm 6,4 1025,3 75 -
10:58 13,9 9,5 3,2 SW 4,8 1024,9 75 -
11:04 14,2 9,8 1,4 SSE 4,8 1024,9 75 -
11:08 14,4 9,6 9,7 SW 9,7 1024,9 73 -
11:14 14,6 9,8 6,4 SSW 6,4 1024,9 73 -
11:18 14,7 9,3 4,7 SSW 6,4 1024,9 70 -
11:24 14,7 9,3 9,7 SW 9,7 1024,6 70 -
11:28 14,8 9,2 3,2 SW 9,7 1024,6 69 -
11:34 15,2 9,8 4,7 SW 9,7 1024,6 70 -
11:38 15,3 9,9 1,4 SSE 11,3 1024,6 70 -
11:44 15,8 9,9 7,9 SW 8,0 1024,9 68 -
11:48 15,9 9,6 4,7 SSW 8,0 1024,9 66 -
11:54 15,7 9,1 4,7 SSW 14,5 1024,6 65 -
11:58 15,9 9,6 3,2 South 8,0 1024,6 66 -
12:04 16,4 9,6 3,2 SE 12,9 1024,3 64 -
12:08 16,4 9,6 9,7 South 16,1 1024,3 64 -
12:14 16,2 8,7 13,0 SW 20,9 1024,3 61 -
12:18 16,2 8,9 4,7 SSW 12,9 1024,3 62 -
12:24 16,4 9,3 6,4 WSW 9,7 1024,3 63 -
12:28 16,4 9,1 3,2 ESE 9,7 1024,3 62 -
12:34 16,4 8,6 14,3 SSW 14,5 1024,3 60 -
12:38 16,4 8,6 13,0 SSW 12,9 1023,9 60 -
12:44 16,7 8,6 4,7 SW 14,5 1023,9 59 -
12:48 17,0 8,9 1,4 East 6,4 1023,9 59 -
12:54 17,5 9,1 6,4 SW 14,5 1023,9 58 -
12:58 17,4 8,5 7,9 SW 14,5 1023,9 56 -
13:04 17,3 8,7 7,9 South 12,9 1023,9 57 -
13:08 17,2 8,9 9,7 SSE 11,3 1023,9 58 -
13:14 17,0 7,9 9,7 SSW 14,5 1023,6 55 -
13:18 17,1 8,0 9,7 SW 22,5 1023,9 55 -
13:24 17,2 8,1 9,7 SW 14,5 1023,9 55 -
13:28 17,6 8,7 1,4 SW 6,4 1023,6 56 -
13:34 17,6 7,6 9,7 SSE 19,3 1023,6 52 -
13:38 17,8 8,4 7,9 SW 11,3 1023,6 54 -
13:44 17,9 8,2 6,4 SSE 12,9 1023,2 53 -
13:48 18,1 8,4 4,7 SSW 8,0 1023,2 53 -
13:54 17,9 7,3 11,1 South 17,7 1023,2 50 -
13:58 17,7 6,8 7,9 SSW 20,9 1023,2 49 -
14:04 17,6 6,8 4,7 South 14,5 1023,2 49 -
14:08 17,7 7,7 6,4 SSW 11,3 1023,2 52 -
14:14 17,7 6,8 11,1 SW 19,3 1022,9 49 -
14:18 17,8 8,1 11,1 SW 14,5 1022,9 53 -
14:24 18,3 8,0 11,1 South 16,1 1022,9 51 -
14:28 18,6 8,0 7,9 SW 17,7 1022,9 50 -
14:34 18,4 7,2 14,3 SW 22,5 1022,9 48 -
14:38 18,2 6,7 7,9 SSW 16,1 1022,9 47 -
14:44 18,4 7,2 11,1 SW 14,5 1022,6 48 -
14:48 18,3 7,4 6,4 SSW 17,7 1022,6 49 -
14:54 18,2 6,7 14,3 SSW 19,3 1022,6 47 -
14:58 18,2 7,0 3,2 SW 14,5 1022,6 48 -
15:04 18,1 7,2 7,9 SW 14,5 1022,9 49 -
15:08 18,2 7,3 7,9 West 11,3 1022,9 49 -
15:14 18,2 7,0 14,3 WSW 19,3 1022,6 48 -
15:18 18,3 6,8 14,3 SW 14,5 1022,6 47 -
15:24 18,3 7,1 14,3 SW 14,5 1022,6 48 -
15:28 18,4 6,6 6,4 SSW 14,5 1022,6 46 -
15:34 18,3 6,8 4,7 SW 12,9 1022,6 47 -
15:38 18,4 7,2 4,7 SSW 6,4 1022,6 48 -
15:44 18,6 7,4 9,7 South 11,3 1022,6 48 -
15:48 18,7 7,2 9,7 WSW 17,7 1022,6 47 -
15:54 18,8 7,2 6,4 SW 12,9 1022,2 47 -
15:58 18,8 7,6   Calm 11,3 1022,2 48 -
16:04 18,9 7,3 9,7 SSW 16,1 1022,2 47 -
16:08 18,9 6,7 6,4 WSW 19,3 1022,2 45 -
16:14 19,1 6,6 6,4 SSW 17,7 1021,9 44 -
16:18 19,1 6,9 3,2 WSW 11,3 1021,9 45 -
16:24 19,1 6,2 11,1 SSW 11,3 1021,6 43 -
16:28 19,3 6,4 13,0 SSW 19,3 1021,6 43 -
16:34 19,4 6,2 11,1 SW 19,3 1021,6 42 -
16:38 19,3 6,4 4,7 SW 14,5 1021,6 43 -
16:44 19,7 6,8 7,9 SW 19,3 1021,6 43 -
16:48 19,8 6,9 14,3 SSW 22,5 1021,6 43 -
16:54 19,9 6,9 9,7 SW 19,3 1021,2 43 -
16:58 19,9 7,3 4,7 SE 12,9 1021,2 44 -
17:02 20,0 7,4 11,1 SSW 17,7 1021,2 44 -
17:08 19,9 7,3 14,3 SW 17,7 1021,6 44 -
17:13 19,8 7,5 7,9 South 12,9 1021,2 45 -
17:19 19,8 6,9 7,9 SSW 19,3 1021,2 43 -
17:23 19,9 7,3 11,1 SW 16,1 1021,2 44 -
17:29 20,1 7,5 13,0 SW 20,9 1021,2 44 -
17:33 20,1 7,5 7,9 SW 16,1 1020,9 44 -
17:39 20,1 7,1 13,0 SSW 16,1 1020,9 43 -
17:43 20,0 7,4 7,9 SW 16,1 1020,9 44 -
17:49 19,9 7,3 4,7 West 12,9 1020,9 44 -
17:53 20,0 7,4 6,4 WSW 11,3 1020,5 44 -
17:59 20,2 7,6 4,7 West 14,5 1020,5 44 -
18:03 20,3 6,6 6,4 WSW 16,1 1020,5 41 -
18:09 20,3 6,3 9,7 SSW 11,3 1020,5 40 -
18:13 20,4 6,0 16,3 West 17,7 1020,5 39 -
18:19 20,7 5,9 7,9 SW 20,9 1020,2 38 -
18:23 20,8 5,6 14,3 SW 14,5 1020,2 37 -
18:29 20,8 5,6 14,3 SW 19,3 1020,5 37 -
18:33 20,8 5,6 14,3 WSW 19,3 1020,5 37 -
18:39 20,6 5,4 22,7 WSW 24,1 1020,2 37 -
18:43 20,5 5,7 11,1 WSW 25,7 1020,2 38 -
18:49 20,4 5,6 16,3 SW 16,1 1020,5 38 -
18:53 20,4 5,6 9,7 SSW 20,9 1020,5 38 -
18:59 20,3 6,3 13,0 SW 19,3 1020,2 40 -
19:03 20,3 6,3 7,9 SSW 17,7 1020,2 40 -

Download your copy of this data-set  here

Our weather-data as stored at Weather Underground. Script developed by Jim McMurry. Adapted for the template by Leuven-Template.eu

You find our weather info also at:

Weather Underground

Equipment we use:

Weather-station
Davis Vue

Weather-program
Meteobridge

Weather-server
Raspberry PI 2 B+

Provider
1 and 1

Davis Vue

Meteobridge

Raspberry PI 2 B+

1 and 1